Location: *
(46.4000°N, 12.6667°E)
Time: 03:40:52
(UTC+00:00)

Envisat - Pass Details

Date: 10 December 2021
Orbit: 764 x 766 km, 98.2° (Epoch: 16 January)

Event Time Altitude Azimuth Distance (km) Brightness Sun altitude
Rises 05:07:21 0° 6° (N) 3,244 6.1 -15.5°
Reaches altitude 10° 05:09:50 10° 357° (N) 2,313 5.3 -15.1°
Maximum altitude 05:14:24 34° 294° (WNW) 1,237 3.5 -14.4°
Drops below altitude 10° 05:18:56 10° 230° (SW) 2,298 5.2 -13.6°
Sets 05:21:24 0° 221° (SW) 3,219 6.0 -13.2°
